Change the Weather History Date:

Wednesday, October 3, 2012

  Actual Average Record
Temperature  
Mean Temperature 82 °F 79 °F  
Max Temperature 89 °F 86 °F 94 °F (1985)
Min Temperature 74 °F 72 °F 57 °F (1984)
Degree Days  
Heating Degree Days 0 0  
Month to date heating degree days 0 0  
Since 1 July heating degree days 0 0  
Cooling Degree Days 17 14  
Month to date cooling degree days 52 42  
Year to date cooling degree days 3037 2809  
Growing Degree Days 32 (Base 50)    
Moisture  
Dew Point 74 °F    
Average Humidity 79    
Maximum Humidity 94    
Minimum Humidity 63    
Precipitation  
Precipitation 0.00 in 0.20 in 6.09 in (2000)
Month to date precipitation 0.08 0.62  
Year to date precipitation 40.93 42.11  
Sea Level Pressure  
Sea Level Pressure 30.11 in    
Wind  
Wind Speed 8 mph (SE)    
Max Wind Speed 20 mph    
Max Gust Speed 24 mph    
Visibility 10 miles    
Events      
T = Trace of Precipitation, MM = Missing Value Source: NWS Daily Summary

Daily Weather History Graph

Daily Weather History Graph

Search for Another Location

Airport or City:

Trip Planner

Search our weather history database for the weather conditions in past years. The results will help you decide how hot, cold, wet, or windy it might be!

Date:

Astronomy

Oct. 03, 2012 Rise Set
Actual Time 7:15 AM EDT 7:04 PM EDT
Civil Twilight 6:52 AM EDT 7:28 PM EDT
Nautical Twilight 6:25 AM EDT 7:55 PM EDT
Astronomical Twilight 5:58 AM EDT 8:22 PM EDT
Moon 9:17 PM EDT (10/3) 10:16 AM EDT (10/3)
Length of Visible Light 12h 36m
Length of Day
11h 49m
Waning Gibbous, 89% of the Moon is Illuminated
Oct 3
Waning Gibbous
Oct 8
Last Quarter
Oct 15
New
Oct 21
First Quarter
Oct 29
Full

Hourly Weather History & Observations

Time (EDT) Temp. Heat Index Dew Point Humidity Pressure Visibility Wind Dir Wind Speed Gust Speed Precip Events Conditions
12:53 AM 75.9 °F - 73.9 °F 94% 30.05 in 10.0 mi SE 6.9 mph - N/A   Mostly Cloudy
1:31 AM 75.2 °F - 73.4 °F 94% 30.06 in 10.0 mi South 5.8 mph - N/A   Mostly Cloudy
1:53 AM 75.9 °F - 73.9 °F 94% 30.06 in 10.0 mi SSE 5.8 mph - N/A   Mostly Cloudy
2:53 AM 75.0 °F - 73.0 °F 94% 30.06 in 10.0 mi SSE 5.8 mph - N/A   Mostly Cloudy
3:53 AM 75.0 °F - 73.0 °F 94% 30.06 in 10.0 mi SSE 9.2 mph - N/A   Partly Cloudy
4:53 AM 75.9 °F - 73.0 °F 91% 30.06 in 10.0 mi South 5.8 mph - N/A   Clear
5:53 AM 75.9 °F - 73.0 °F 91% 30.08 in 10.0 mi SSE 4.6 mph - N/A   Partly Cloudy
6:53 AM 75.9 °F - 73.0 °F 91% 30.08 in 10.0 mi Calm Calm - N/A   Overcast
7:53 AM 75.9 °F - 73.0 °F 91% 30.10 in 10.0 mi SSE 3.5 mph - N/A   Partly Cloudy
8:53 AM 80.1 °F 85.1 °F 75.0 °F 85% 30.11 in 10.0 mi SSE 4.6 mph - N/A   Clear
9:53 AM 82.9 °F 90.8 °F 75.9 °F 79% 30.13 in 10.0 mi SE 9.2 mph - N/A   Partly Cloudy
10:53 AM 86.0 °F 93.0 °F 73.0 °F 65% 30.12 in 10.0 mi SSE 12.7 mph - N/A   Clear
11:53 AM 88.0 °F 96.5 °F 73.9 °F 63% 30.13 in 10.0 mi SE 13.8 mph - N/A   Scattered Clouds
12:53 PM 86.0 °F 96.0 °F 75.9 °F 72% 30.12 in 10.0 mi SE 9.2 mph - N/A   Clear
1:53 PM 88.0 °F 100.2 °F 77.0 °F 70% 30.11 in 10.0 mi ESE 13.8 mph - N/A   Clear
2:53 PM 89.1 °F 100.2 °F 75.9 °F 65% 30.09 in 10.0 mi SE 15.0 mph - N/A   Clear
3:53 PM 87.1 °F 98.8 °F 77.0 °F 72% 30.09 in 10.0 mi SE 15.0 mph - N/A   Scattered Clouds
4:53 PM 87.1 °F 97.3 °F 75.9 °F 69% 30.09 in 10.0 mi ESE 17.3 mph - N/A   Clear
6:53 PM 82.0 °F 90.2 °F 77.0 °F 85% 30.11 in 10.0 mi ESE 10.4 mph - N/A   Clear
7:53 PM 81.0 °F 88.6 °F 78.1 °F 91% 30.12 in 10.0 mi ESE 5.8 mph - N/A   Clear
8:53 PM 81.0 °F 88.6 °F 78.1 °F 91% 30.15 in 10.0 mi ESE 5.8 mph - N/A   Partly Cloudy
9:26 PM 78.8 °F - 73.4 °F 83% 30.18 in 10.0 mi NW 9.2 mph - N/A   Overcast
9:53 PM 79.0 °F - 72.0 °F 79% 30.18 in 10.0 mi NNW 8.1 mph - N/A   Mostly Cloudy
10:53 PM 77.0 °F - 72.0 °F 84% 30.17 in 10.0 mi Calm Calm - N/A   Clear
11:53 PM 75.9 °F - 72.0 °F 87% 30.19 in 10.0 mi West 4.6 mph - N/A   Clear